User: anonymous   Login
Location: Dead Woman Crossing
(43.5369°N, 106.3228°W)
Time: 21:59:56
(UTC+00:00)
Language:

Gurwin Techsat 1B - Orbit

View from above orbital plane
View from above orbital plane
View from above satellite
View from above satellite

Ground track
Ground track

The orbit data is extracted from the following two-line orbital elements,

1 25397U 98043D   22179.46211025  .00000001  00000-0  20067-4 0  9992
2 25397  98.8185 129.9596 0002402  81.4460 278.6991 14.23759096244995
Epoch (UTC): 28 June 2022 11:05:26
Eccentricity: 0.0002402
inclination: 98.8185°
perigee height: 811 km
apogee height: 814 km
right ascension of ascending node: 129.9596°
argument of perigee: 81.4460°
revolutions per day: 14.23759096
mean anomaly at epoch: 278.6991°
orbit number at epoch: 24499

The dashed part of the orbit path shows where the satellite is in the earth's shadow,  

DLR